Tracking 22223 objects as of 26-Jan-2021
HD Live streaming from Space Station
objects crossing your sky now

IRIDIUM 82

Track IRIDIUM 82 now!
10-day predictions
IRIDIUM 82 is classified as:


NORAD ID: 25467
Int'l Code: 1998-051A
Perigee: 477.3 km
Apogee: 725.1 km
Inclination: 86.4 °
Period: 96.6 minutes
Semi major axis: 6972 km
RCS: 4.1187 m2 (large)
Launch date: September 8, 1998
Source: United States (US)
Launch site: AIR FORCE WESTERN TEST RANGE (AFWTR)
aabbcc
Your satellite tracking list
Your tracking list is empty




NASA's NSSDC Master Catalog

Two Line Element Set (TLE):
1 25467U 98051A   21025.56047840  .00000820  00000-0  58014-4 0  9993
2 25467  86.4028 138.3223 0177680   7.1086 353.2595 14.91237632183188
Source of the keplerian elements: AFSPC